Regional Weather Roundup
Issued by NWS Upton, NY

Home | Current Version | Previous Version | Text Only | Print | Product List | Glossary On
Versions: 1 2 3 4 5 6 7 8 9 10 11 12 13 14 15 16 17 18 19 20 21 22 23 24 25 26 27 28 29 30 31 32 33 34 35 36 37 38 39 40 41 42 43 44 45 46 47 48 49 50
485
ASUS41 KOKX 302108
RWROKX

REGIONAL WEATHER ROUNDUP
NATIONAL WEATHER SERVICE NEW YORK NY
500 PM EDT FRI SEP 30 2016

NOTE: "FAIR" INDICATES FEW OR NO CLOUDS BELOW 12,000 FEET WITH NO
SIGNIFICANT WEATHER AND/OR OBSTRUCTIONS TO VISIBILITY.

NYZ071-072-176-178-NJZ106-104-302200-
NEW YORK CITY METRO AREA

CITY           SKY/WX    TMP DP  RH WIND       PRES   REMARKS
Central Park   LGT RAIN  58  56  93 E10G20    30.26F FOG
LaGuardia APRT CLOUDY    63  58  83 NE25G36   30.24S HAZE
Kennedy INTL   CLOUDY    60  57  89 NE22G28   30.22F FOG
Newark/Liberty LGT RAIN  59  58  96 NE15      30.24S VSB 1
Bronx Bot Gard   N/A     57  54  88 NE10      30.26S
Wall St Helipt CLOUDY    63  61  94 NE20G30   30.23S
Teterboro      LGT RAIN  59  54  83 NE13G23   30.24S
$$

NYZ177-179-078>081-302200-
LONG ISLAND NEW YORK

CITY           SKY/WX    TMP DP  RH WIND       PRES   REMARKS
Farmingdale    CLOUDY    60  57  89 NE15G26   30.23F FOG
MacArthur/ISP  DRIZZLE   59  57  93 NE18G29   30.23F FOG
Shirley        LGT RAIN  59  57  93 VRB6G17   30.25S FOG
Riverhead      NOT AVBL
Westhampton    LGT RAIN  59  56  89 NE16G32   30.26S
Southampton      N/A     59  57  94 NE13      30.21S
Bridgehampton    N/A     57  57 100 NE8       30.11S
East Hampton   LGT RAIN  58  57  95 NE13G26   30.25F
Montauk          N/A     60  58  92 NE16G25   30.28F
$$

NYZ052-065-067-302200-
HUDSON VALLEY

CITY           SKY/WX    TMP DP  RH WIND       PRES   REMARKS
White Plains   LGT RAIN  58  54  86 NE12G20   30.25F
Newburgh       LGT RAIN  55  55 100 NE12G21   30.31S FOG
Montgomery     LGT RAIN  57  53  86 NE13G24   30.29F
Poughkeepsie   LGT RAIN  56  53  90 N9        30.30S
Albany         LGT RAIN  62  43  49 E10       30.35F
$$

NJZ001-105-106-008-010-013-015-019>022-104-302200-
NEW JERSEY

CITY           SKY/WX    TMP DP  RH WIND       PRES   REMARKS
Newark/Liberty LGT RAIN  59  58  96 NE15      30.24S VSB 1
Teterboro      LGT RAIN  59  54  83 NE13G23   30.24S
Caldwell       CLOUDY    58  56  93 NE7       30.26R FOG
Morristown     LGT RAIN  57  57 100 NE9G17    30.26R FOG
Somerville     CLOUDY    59  56  89 NE7       30.22S FOG
Linden         NOT AVBL
Sussex         CLOUDY    56  54  93 NE13G21   30.28R FOG
Abdover          N/A     56  54  93 VRB5      30.27R
Trenton        CLOUDY    61  57  87 NE16G22   30.20F
Millville      CLOUDY    65  64  97 NE14G25   30.13F
Atlantic City  LGT RAIN  64  62  93 NE17G28   30.14S FOG
Wrightstown    LGT RAIN  63  61  94 NE15      30.16R FOG
Toms River     LGT RAIN  62  61  96 NE16G24   30.19S FOG
Belmar         LGT RAIN  61  60  97 NE18G25   30.21S FOG
$$

PAZ047>061-062-071-302200-
EASTERN PENNSYLVANIA

CITY           SKY/WX    TMP DP  RH WIND       PRES   REMARKS
Philadelphia   CLOUDY    63  59  87 NE13G25   30.18S
Allentown      CLOUDY    59  55  87 NE12      30.23S
Scranton       CLOUDY    58  52  80 NE8       30.24S
$$

CTZ002-004>006-009-010-012-RIZ004-006-007-MAZ004-011-015-302200-
SOUTHERN NEW ENGLAND
 IN CT

CITY           SKY/WX    TMP DP  RH WIND       PRES   REMARKS
Bradley INTL   LGT RAIN  56  52  86 N9        30.36R FOG
Hartford       LGT RAIN  56  54  93 N10       30.34S
Danbury        CLOUDY    56  52  86 E12       30.30S
Wtrbury/Oxford LGT RAIN  55  48  76 E14G25    30.30F
Bridgeport     CLOUDY    61  54  77 NE17G28   30.27F
Meriden        CLOUDY    58  53  84 N7        30.32S HAZE
New Haven      CLOUDY    59  54  83 NE15      30.29S
Chester        CLOUDY    57  55  94 NE8G18    30.30S
Groton         LGT RAIN  60  56  86 NE15G26   30.29S FOG
Wilimantic     LGT RAIN  57  55  93 NE13      30.34S

 IN RI

CITY           SKY/WX    TMP DP  RH WIND       PRES   REMARKS
Providence     LGT RAIN  57  54  89 NE16G24   30.35F
Block Island   LGT RAIN  59  57  93 NE24G36   30.28F FOG
Westerly       LGT RAIN  58  54  86 NE10G18   30.30F FOG
 IN MA

CITY           SKY/WX    TMP DP  RH WIND       PRES   REMARKS
Boston         CLOUDY    58  52  80 NE16      30.40F
Worcester      LGT RAIN  51  48  89 NE10      30.37F
Westfield      LGT RAIN  56  52  86 NE6       30.37R
Provincetown   LGT RAIN  58  55  90 E16       30.38F
Nantucket      HVY RAIN  59  57  93 NE15G24   30.30F FOG
$$

ANZ330-335-338-340-345-350-353-355-302200-
COASTAL MARINE OBSERVATIONS


STATION/POSITION TIME  SKY/WX   TEMP    WIND        PRES    VSBY  WAVE
                                AIR SEA DIR/SP/G                  HT/PER
                 (UTC)          (F)     (DEG/KT/KT) (MB)    (MI)  (FT/S)
NY HARB ENTRANCE 2050            62 69   50/ 29/ 35 1021.3         12/ 9
20S FIRE ISLAND  2050            63 67   60/ 31/ 41 1020.7         15/ 9
GREAT SOUTH BAY  2030            60 64   70/ 17/ 23   N/A
23 SSW MONTAUK P 2050            61 64   60/ 31/ 37 1022.6         11/ 8
15 E BARNEGAT LI 2030               70                N/A          14/ 9
HUDSON CANYON    1950            69 71              1019.0         13/10
KINGS POINT      2036            59 69              1023.8
EXECUTION ROCKS  2045            62      60/ 25/ 33   N/A
CENTRAL LI SOUND NOT AVBL
EASTERN LI SOUND NOT AVBL
ROBBINS REEF     2042            60      50/ 22/ 25 1023.6
$$


>>>>>>>>>>>>>>>>>>>>>>>>>>>> KEY <<<<<<<<<<<<<<<<<<<<<<<<<<<
>                                                          <
>     SKY/WX - Sky Condition/Present Weather               <
>     TMP    - Temperature in Fahrenheit                   <
>     DP     - Dew Point in Fahrenheit                     <
>     RH     - Relative Humidity in Percent                <
>     WIND   - Direction (from) and Speed in MPH           <
>     PRES   - Mean Sea Level Pressure (inches of Hg)      <
>     WCI    - Wind Chill Index                            <
>     VSB    - VISIBILITY IN MILES                         <
>     HX     - HEAT INDEX                                  <
>     TC     - TEMPERATURE IN CELSIUS                      <
>     VRB    - VARIABLE WIND DIRECTION                     <
>                                                          <
>>>>>>>>>>>>>>>>>>>>>>>>>>>> KEY <<<<<<<<<<<<<<<<<<<<<<<<<<<




USA.gov is the U.S. government's official web portal to all federal, state and local government web resources and services.